Weather History for Glenwood, MN

Change the Weather History Date:

Wednesday, March 14, 2012

  Actual Average Record
Temperature  
Mean Temperature 52 °F -  
Max Temperature 62 °F 36 °F 65 °F (1981)
Min Temperature 41 °F 18 °F -14 °F (1960)
Degree Days  
Heating Degree Days 14    
Growing Degree Days 2 (Base 50)    
Moisture  
Dew Point 33 °F    
Average Humidity 52    
Maximum Humidity 87    
Minimum Humidity 19    
Precipitation  
Precipitation 0.00 in - - ()
Sea Level Pressure  
Sea Level Pressure 29.79 in    
Wind  
Wind Speed 13 mph (NW)    
Max Wind Speed 20 mph    
Max Gust Speed 24 mph    
Visibility 10 miles    
Events      
Averages and records for this station are not official NWS values.
T = Trace of Precipitation, MM = Missing Value Source: NWS Daily Summary

Daily Weather History Graph

Daily Weather History Graph

Search for Another Location

Airport:

Trip Planner

Search our weather history database for the weather conditions in past years. The results will help you decide how hot, cold, wet, or windy it might be!

Date:

Astronomy

Mar. 14, 2012 Rise Set
Actual Time 7:34 AM CDT 7:26 PM CDT
Civil Twilight 7:05 AM CDT 7:56 PM CDT
Nautical Twilight 6:30 AM CDT 8:30 PM CDT
Astronomical Twilight 5:55 AM CDT 9:06 PM CDT
Moon 2:22 AM CDT (3/14) 11:26 AM CDT (3/14)
Length of Visible Light 12h 50m
Length of Day
11h 51m
Waning Gibbous, 54% of the Moon is Illuminated
Mar 14
Waning Gibbous
Mar 14
Last Quarter
Mar 22
New
Mar 30
First Quarter
Apr 6
Full

Hourly Weather History & Observations

Time (CDT) Temp. Windchill Dew Point Humidity Pressure Visibility Wind Dir Wind Speed Gust Speed Precip Events Conditions
12:14 AM 55.4 °F - 44.6 °F 67% 29.73 in 10.0 mi SSE 18.4 mph 24.2 mph N/A   Clear
12:33 AM 55.4 °F - 44.6 °F 67% 29.72 in 10.0 mi SSE 19.6 mph - N/A   Clear
12:54 AM 55.4 °F - 44.6 °F 67% 29.72 in 10.0 mi SSE 18.4 mph - N/A   Clear
1:13 AM 53.6 °F - 44.6 °F 72% 29.71 in 10.0 mi SSE 18.4 mph - N/A   Clear
1:34 AM 53.6 °F - 44.6 °F 72% 29.70 in 10.0 mi SSE 17.3 mph - N/A   Clear
1:53 AM 53.6 °F - 44.6 °F 72% 29.70 in 10.0 mi SSE 13.8 mph - N/A   Clear
2:14 AM 53.6 °F - 44.6 °F 72% 29.69 in 10.0 mi SSE 15.0 mph 21.9 mph N/A   Clear
2:33 AM 53.6 °F - 44.6 °F 72% 29.68 in 10.0 mi SSE 15.0 mph - N/A   Clear
3:14 AM 53.6 °F - 44.6 °F 72% 29.67 in 10.0 mi SSE 13.8 mph - N/A   Clear
3:34 AM 53.6 °F - 44.6 °F 72% 29.67 in 10.0 mi SSE 12.7 mph - N/A   Clear
3:54 AM 51.8 °F - 42.8 °F 71% 29.66 in 10.0 mi SSE 12.7 mph - N/A   Clear
4:14 AM 51.8 °F - 42.8 °F 71% 29.66 in 10.0 mi SSE 11.5 mph - N/A   Clear
4:33 AM 51.8 °F - 42.8 °F 71% 29.66 in 10.0 mi SSE 12.7 mph - N/A   Clear
4:54 AM 50.0 °F - 42.8 °F 76% 29.66 in 10.0 mi SSE 8.1 mph - N/A   Clear
5:13 AM 50.0 °F - 42.8 °F 76% 29.65 in 10.0 mi SSE 9.2 mph - N/A   Clear
5:34 AM 48.2 °F - 42.8 °F 82% 29.65 in 10.0 mi SSE 8.1 mph - N/A   Clear
5:53 AM 46.4 °F 42.9 °F 42.8 °F 87% 29.66 in 10.0 mi South 6.9 mph - N/A   Clear
6:13 AM 46.4 °F 41.5 °F 42.8 °F 87% 29.66 in 10.0 mi SSE 10.4 mph - N/A   Clear
6:33 AM 44.6 °F 40.7 °F 39.2 °F 81% 29.67 in 10.0 mi South 6.9 mph - N/A   Clear
6:54 AM 44.6 °F 41.4 °F 41.0 °F 87% 29.69 in 10.0 mi SSW 5.8 mph - N/A   Clear
7:34 AM 42.8 °F 38.6 °F 39.2 °F 87% 29.70 in 7.0 mi SSW 6.9 mph - N/A   Clear
7:53 AM 41.0 °F 36.4 °F 37.4 °F 87% 29.71 in 5.0 mi SW 6.9 mph - N/A   Clear
8:13 AM 42.8 °F 38.0 °F 39.2 °F 87% 29.72 in 7.0 mi West 8.1 mph - N/A   Clear
8:34 AM 46.4 °F 41.9 °F 41.0 °F 81% 29.73 in 10.0 mi West 9.2 mph - N/A   Clear
8:53 AM 48.2 °F - 41.0 °F 76% 29.74 in 10.0 mi WNW 12.7 mph - N/A   Clear
9:14 AM 50.0 °F - 39.2 °F 66% 29.75 in 10.0 mi NW 12.7 mph - N/A   Clear
9:33 AM 51.8 °F - 39.2 °F 62% 29.76 in 10.0 mi NNW 13.8 mph - N/A   Clear
9:54 AM 53.6 °F - 37.4 °F 54% 29.77 in 10.0 mi NNW 15.0 mph - N/A   Clear
10:13 AM 55.4 °F - 35.6 °F 47% 29.79 in 10.0 mi North 16.1 mph 20.7 mph N/A   Clear
10:34 AM 55.4 °F - 35.6 °F 47% 29.80 in 10.0 mi NNW 13.8 mph 23.0 mph N/A   Clear
10:54 AM 57.2 °F - 33.8 °F 41% 29.81 in 10.0 mi NNW 13.8 mph 21.9 mph N/A   Clear
11:13 AM 57.2 °F - 33.8 °F 41% 29.80 in 10.0 mi NNW 15.0 mph - N/A   Clear
11:34 AM 59.0 °F - 30.2 °F 34% 29.81 in 10.0 mi North 13.8 mph - N/A   Clear
11:53 AM 60.8 °F - 28.4 °F 29% 29.82 in 10.0 mi North 17.3 mph - N/A   Clear
12:14 PM 60.8 °F - 28.4 °F 29% 29.83 in 10.0 mi NNW 16.1 mph - N/A   Clear
12:34 PM 62.6 °F - 26.6 °F 26% 29.83 in 10.0 mi NNW 15.0 mph 20.7 mph N/A   Clear
12:53 PM 60.8 °F - 28.4 °F 29% 29.83 in 10.0 mi North 11.5 mph - N/A   Clear
1:13 PM 62.6 °F - 26.6 °F 26% 29.84 in 10.0 mi NNW 12.7 mph - N/A   Clear
1:33 PM 60.8 °F - 26.6 °F 27% 29.85 in 10.0 mi NNW 13.8 mph - N/A   Clear
1:54 PM 62.6 °F - 26.6 °F 26% 29.85 in 10.0 mi NNW 15.0 mph - N/A   Clear
2:14 PM 60.8 °F - 26.6 °F 27% 29.85 in 10.0 mi NNW 16.1 mph - N/A   Clear
2:33 PM 62.6 °F - 23.0 °F 22% 29.85 in 10.0 mi NNW 15.0 mph 20.7 mph N/A   Clear
2:54 PM 62.6 °F - 21.2 °F 20% 29.86 in 10.0 mi NNW 13.8 mph - N/A   Clear
3:14 PM 60.8 °F - 30.2 °F 31% 29.86 in 10.0 mi NW 12.7 mph - N/A   Clear
3:34 PM 60.8 °F - 24.8 °F 25% 29.87 in 10.0 mi North 12.7 mph - N/A   Clear
3:53 PM 57.2 °F - 19.4 °F 23% 29.87 in 10.0 mi NNW 13.8 mph - N/A   Clear
4:14 PM 60.8 °F - 17.6 °F 19% 29.88 in 10.0 mi NNW 12.7 mph - N/A   Clear
4:34 PM 59.0 °F - 17.6 °F 20% 29.89 in 10.0 mi NNW 10.4 mph - N/A   Clear
4:54 PM 60.8 °F - 17.6 °F 19% 29.89 in 10.0 mi NNW 10.4 mph - N/A   Clear
5:13 PM 57.2 °F - 24.8 °F 29% 29.90 in 10.0 mi NW 11.5 mph - N/A   Clear
5:34 PM 59.0 °F - 21.2 °F 23% 29.90 in 10.0 mi NW 12.7 mph 18.4 mph N/A   Clear
5:53 PM 57.2 °F - 23.0 °F 27% 29.90 in 10.0 mi NW 11.5 mph - N/A   Clear
6:14 PM 55.4 °F - 24.8 °F 31% 29.91 in 10.0 mi NW 10.4 mph - N/A   Clear
6:34 PM 55.4 °F - 26.6 °F 33% 29.91 in 10.0 mi NW 10.4 mph - N/A   Clear
6:54 PM 51.8 °F - 28.4 °F 41% 29.92 in 10.0 mi NW 9.2 mph - N/A   Clear
7:14 PM 48.2 °F - 28.4 °F 46% 29.92 in 10.0 mi NW 5.8 mph - N/A   Clear
7:33 PM 46.4 °F 43.5 °F 26.6 °F 46% 29.92 in 10.0 mi NNW 5.8 mph - N/A   Clear
7:54 PM 44.6 °F 41.4 °F 28.4 °F 53% 29.93 in 10.0 mi NW 5.8 mph - N/A   Clear
8:13 PM 44.6 °F 41.4 °F 26.6 °F 49% 29.93 in 10.0 mi NNW 5.8 mph - N/A   Clear
8:34 PM 42.8 °F 38.0 °F 28.4 °F 57% 29.94 in 10.0 mi NW 8.1 mph - N/A   Clear
8:54 PM 42.8 °F 38.6 °F 26.6 °F 53% 29.93 in 10.0 mi NNW 6.9 mph - N/A   Clear
9:13 PM 42.8 °F 38.6 °F 26.6 °F 53% 29.94 in 10.0 mi NNW 6.9 mph - N/A   Clear
9:53 PM 42.8 °F 38.0 °F 24.8 °F 49% 29.95 in 10.0 mi North 8.1 mph - N/A   Clear
10:14 PM 42.8 °F 37.5 °F 24.8 °F 49% 29.95 in 10.0 mi North 9.2 mph - N/A   Clear
10:33 PM 41.0 °F 35.2 °F 24.8 °F 53% 29.95 in 10.0 mi North 9.2 mph - N/A   Clear
10:54 PM 41.0 °F 35.2 °F 24.8 °F 53% 29.95 in 10.0 mi North 9.2 mph - N/A   Clear
11:14 PM 39.2 °F 32.0 °F 23.0 °F 52% 29.96 in 10.0 mi North 11.5 mph - N/A   Clear
11:34 PM 39.2 °F 31.6 °F 24.8 °F 56% 29.96 in 10.0 mi NNW 12.7 mph - N/A   Clear
11:53 PM 39.2 °F 32.5 °F 24.8 °F 56% 29.96 in 10.0 mi North 10.4 mph - N/A   Clear